Other Public Products
Issued by NWS Grand Forks, ND

Home | Current Version | Previous Version | Graphics & Text | Print | Product List | Glossary On
Versions: 1 2 3 4 5 6 7 8 9 10 11 12 13 14 15 16 17 18 19 20 21 22 23 24 25 26 27 28 29 30 31 32 33 34 35 36 37 38 39 40 41 42 43 44 45 46 47 48 49 50
000
FPUS83 KFGF 271131
OPUFGF
PRAIRIE TO PINES WEATHER ROUNDUP
NATIONAL WEATHER SERVICE EASTERN NORTH DAKOTA/GRAND FORKS ND
500 AM CST FRI FEB 27 2015

 **SATELLITE DATA USED TO AUGMENT SKY COVER AT AUTOMATED STATIONS**
 *****  WEATHER ACROSS EASTERN NORTH DAKOTA  *****

CITY           SKY/WX    TMP DP  RH WIND       PRES   REMARKS
GRAND FORKS    PTCLDY   -10 -16  74 SW5       30.44F WCI -22
GRAND FORKS AF PTCLDY   -12 -19  73 W6        30.44S WCI -26
GRAND CITY NWS   N/A     -9 N/A N/A W2          N/A
BUXTON           N/A    -10 -13  86 SW10        N/A  WCI -29
DEVILS LAKE    PTCLDY   N/A N/A N/A MISG        N/A
FARGO          PTCLDY   -12 -18  74 S7        30.49S WCI -27
WAHPETON ARPT  SUNNY     -9 -15  77 W5        30.51S WCI -21
$$

 *****  WEATHER ACROSS CENTRAL AND WESTERN NORTH DAKOTA  *****

CITY           SKY/WX    TMP DP  RH WIND       PRES   REMARKS
JAMESTOWN      PTCLDY   -10 -16  74 W7        30.42S WCI -25
BISMARCK       PTCLDY   -11 -16  78 CALM      30.43F
MINOT          MOCLDY    -9 -14  78 S8        30.35F WCI -25
MINOT AFB      MOCLDY   -11 -15  80 SW7       30.36F WCI -26
GARRISON         N/A    -15 -21  74 CALM      30.36F
WILLISTON      PTCLDY   -10 -14  82 CALM      30.31F
DICKINSON      CLEAR     -7 -13  75 S9        30.26F WCI -24
HETTINGER      CLEAR     -5 -10  79 CALM      30.29F
$$

 *****  OTHER OBSERVATIONS NORTHEAST NORTH DAKOTA  *****

CITY           SKY/WX    TMP DP  RH WIND       PRES   REMARKS
WALHALLA         N/A     -2 -11  65 W9        30.39F WCI -18
LANGDON        NOT AVBL
CAVALIER       FAIR      -2 -11  65 W12       30.40S WCI -20
GRAFTON        NOT AVBL
CANDO          FAIR     -15 -20  76 W9        30.39S WCI -33
FORT TOTTEN    NOT AVBL
ROLLA          FAIR     -11 -18  70 SW9       30.33S WCI -29
RUGBY          FAIR     -17 -22  76 SW3       30.38F
 ***** THE ABOVE OBSERVATIONS ARE NON NWS ARE NOT QUALITY
        CONTROLLED AND MAY MIS-REPORT RAIN FOR SNOW...
$$

 *****  OTHER OBSERVATIONS SOUTHEAST NORTH DAKOTA *****

CITY           SKY/WX    TMP DP  RH WIND       PRES   REMARKS
COOPERSTOWN    NOT AVBL
VALLEY CITY    FAIR      -8 -13  77 W8        30.43S WCI -23
OAKES            N/A    -11 -17  77 SW5       30.47S WCI -23
GWINNER        SUNNY     -6 -13  71 SW9       30.48F WCI -22
BUFFALO        NOT AVBL
WYNDMERE         N/A    -11 -17  77 SW6         N/A  WCI -25
 ***** THE ABOVE OBSERVATIONS ARE NON NWS ARE NOT QUALITY
       CONTROLLED AND MAY MIS-REPORT RAIN FOR SNOW...
$$

  *****  WEATHER ACROSS NORTHERN MINNESOTA  *****

CITY           SKY/WX    TMP DP  RH WIND       PRES   REMARKS
FLAG ISLAND    PTCLDY   -15 -18  84 S5        30.35R WCI -27
WARROAD        MOCLDY    -9 -15  77 SW6       30.37S WCI -23
ROSEAU         PTCLDY    -9 -17  70 SW6       30.38S WCI -23
HALLOCK        MOCLDY   -15 -20  76 S8        30.41S WCI -32
THF RVR FALLS  PTCLDY   -15 -17  91 SW3       30.40F
HALSTAD          N/A    -12 -18  73 SW7         N/A  WCI -27
FOSSTON        PTCLDY   -17 -22  76 S8        30.41S WCI -34
BAUDETTE       PTCLDY   -13 -17  82 SW5       30.35S WCI -25
WASKISH        MOCLDY    -9 -15  77 CALM      30.38S
CROOKSTON      PTCLDY   -15 -18  84 S5        30.46S WCI -27
$$
  *****  WEATHER ACROSS CENTRAL AND WEST MINNESOTA  *****

CITY           SKY/WX    TMP DP  RH WIND       PRES   REMARKS
BEMIDJI        MOCLDY   -11 -15  82 SW3       30.39S
PARK RAPIDS    PTCLDY   -12 -17  78 W3        30.40R
WADENA         PTCLDY   -13 -17  84 SW5       30.43S WCI -25
DETROIT LAKES  PTCLDY   -11 -15  84 CALM      30.43R
MOORHEAD       PTCLDY    -9 -13  84 SW3       30.49S
FERGUS FALLS   CLEAR    -11 -17  77 CALM      30.53R
ELBOW LAKE     FAIR     -12 -16  84 SW3       30.48R
MORRIS MN      CLEAR     -9 -15  77 W5        30.48F WCI -21
STAPLES        CLEAR    -11 -15  84 CALM      30.44R
WHEATON        CLEAR     -9 -15  77 W5        30.53R WCI -21
$$
  *****  WEATHER ELSEWHERE ACROSS MINNESOTA  *****

CITY           SKY/WX    TMP DP  RH WIND       PRES   REMARKS
DULUTH         PTCLDY    -9 -15  75 W7        30.36R WCI -24
INTRNTL FALLS  PTCLDY   -18 -22  82 SW3       30.36S
ELY            MOCLDY   -18 -24  76 SW3       30.34S
CLOQUET        PTCLDY    -9 -15  77 W8        30.39S WCI -26
BRAINERD       PTCLDY   -14 -18  82 CALM      30.44R
HIBBING        PTCLDY   -21 -26  77 CALM      30.37R
ALEXANDRIA     CLEAR     -8 -16  67 W3        30.45R
SAINT CLOUD    CLEAR     -6 -11  79 W5        30.48S WCI -17
MINNEAPOLIS    CLEAR     -3  -9  75 SW6       30.52R WCI -15
$$

  *****  WEATHER ACROSS SOUTH DAKOTA  *****

CITY           SKY/WX    TMP DP  RH WIND       PRES   REMARKS
SIOUX FALLS    CLEAR     -9 -13  83 W5        30.52R WCI -20
BROOKINGS      NOT AVBL
WATERTOWN      PTCLDY   -14 -20  74 CALM      30.45S
HURON          MOCLDY   -17 -22  78 CALM      30.53S
SISSETON         N/A     -8 -14  74 W7        30.49S WCI -23
ABERDEEN       CLEAR    -16 -21  78 SW3       30.50F
MITCHELL       CLEAR     -5 -10  79 SW5       30.55S WCI -16
PIERRE         CLEAR     -4 -10  75 CALM      30.45F
MOBRIDGE       PTCLDY    -8 -13  78 SE6       30.41S WCI -21
RAPID CITY     CLEAR     -5 -10  79 S9        30.26F WCI -22
$$

  *****  SOME WEATHER IN NEARBY STATES *****

CITY           SKY/WX    TMP DP  RH WIND       PRES   REMARKS
GLASGOW MT     CLEAR      1  -6  72 SE12      30.18F WCI -16
GREAT FALLS MT MOCLDY    11   4  73 S5        29.92F WCI   3
CHEYENNE WY    CLOUDY     3  -1  83 SE13      29.96F FOG     WCI -14
SCOTTSBLUFF NE CLOUDY     7   0  73 SE15      30.21F WCI -10
OMAHA NE       CLEAR     -2  -7  79 NW5       30.60S WCI -12
DES MOINES IA  CLEAR     -6 -12  75 NW3       30.58S
DAVENPORT IA   CLEAR    -18 -23  77 W8        30.55R WCI -36
CHICAGO IL     CLEAR     -1 -10  65 NW9       30.48R WCI -16
EAU CLAIRE WI  CLEAR     -8 -15  71 SW5       30.48R WCI -19
LA CROSSE WI   CLEAR     -7 -13  75 CALM      30.53R
$$

  *****  SOME NATIONAL WEATHER *****

CITY           SKY/WX    TMP DP  RH WIND       PRES   REMARKS
LA GUARDIA NY  CLOUDY    20   7  57 NW9       30.29R WCI   9
RALEIGH NC     PTCLDY    24  21  88 CALM      30.26R FOG
ATLANTA GA     PTCLDY    30  25  81 NW14      30.26R WCI  19
NEW ORLEANS LA CLOUDY    37  30  75 NE18G25   30.33S
OKLAHOMA CITY  CLOUDY    19   2  47 NE16      30.47R WCI   4
ALBUQUERQUE NM CLOUDY    23  16  74 NE20      29.96S WCI   8
SALT LAKE CITY CLOUDY    30  25  81 SE8       29.85F WCI  22
LOS ANGELES CA PTCLDY    52  50  93 E5        29.82F
BOISE ID       CLOUDY    38  31  76 SE6       29.82F
SEATTLE WA     RAIN      47  44  90 N3        29.76F FOG
$$

*** WEATHER ACROSS MANITOBA...SASKATCHEWAN AND ONTARIO ***
                ***ONTARIO***

CITY           SKY/WX    TMP DP  RH WIND       PRES   REMARKS
GERALDTON      CLEAR     -8 -13  77 W12       30.17R WCI -27
THUNDER BAY    CLEAR    -13 -18  77 W6        30.36R WCI -27
SIOUX LOOKOUT  CLEAR    -17 -20  83 S5        30.25S WCI -29
TORONTO        CLEAR     -4  -9  77 W6        30.38R WCI -16
BIG TROUT LK   MOCLDY     1  -9  60 W13G20    29.96F WCI -16
PICKLE LAKE    CLEAR     -8 -15  71 W10       30.11  WCI -26
DRYDEN         CLEAR    -11 -17  77 SW10      30.27S WCI -30
KENORA         CLEAR     -9 -15  77 W9        30.29F WCI -27
$$
                *** MANITOBA***

CITY           SKY/WX    TMP DP  RH WIND       PRES   REMARKS
BRANDON        CLEAR    -17 -22  76 W12       30.36F WCI -38
DAUPHIN        CLEAR      1 -13  51 W14       30.31F WCI -17
ISLAND LAKE    PTCLDY     0 -13  55 SW8       30.07F WCI -15
PILOT MOUND      N/A     -9 -15  77 W5          N/A  WCI -21
THE PAS        PTCLDY    -2 -11  65 W9        30.17F WCI -18
THOMPSON       PTCLDY     1  -9  60 W7        29.97S WCI -11
WINNIPEG       CLEAR     -8 -17  65 W7        30.37F WCI -22
LYNN LAKE      CLOUDY     5   0  78 NW12G18   29.98R WCI -11
CHURCHILL      CRYSTALS   1  -4  78 NW18G24   29.85R WCI -19
GILLAM         CLEAR      7  -6  56 W13G18    29.90R WCI  -9
$$
                ***SASKATCHEWAN***

CITY           SKY/WX    TMP DP  RH WIND       PRES   REMARKS
ESTEVAN        CLEAR    -15 -18  84 S7        30.31F WCI -31
KINDERSLEY     MOCLDY    -6 -11  77 S5        30.10F WCI -17
LLOYDMINSTER   PTCLDY    -4  -9  77 W3        30.09F
PRINCE ALBERT  PTCLDY   -18 -24  76 VRB2      30.20F
REGINA         PTCLDY   -18 -24  76 SE10      30.26F WCI -39
YORKTON        CLEAR     -8 -15  71 SW14      30.26F WCI -28



USA.gov is the U.S. government's official web portal to all federal, state and local government web resources and services.